Location: Caracas
(10.5033°N, 66.8422°W)
Time: 01:42:18
(UTC-04:00)

OTV 5 (USA 277) - Visible Passes

Search period start: 19 January 2018 00:00
Search period end: 29 January 2018 00:00
Orbit: 404 x 417 km, 43.0° (Epoch: 07 September)

Date Brightness Start Highest point End Pass type
(mag) Time Alt. Az. Time Alt. Az. Time Alt. Az.
19 Jan ? 05:44:41 20° SW 05:44:46 20° SW 05:47:14 10° S visible
19 Jan ? 18:57:51 10° W 19:00:32 22° NW 19:03:12 10° NNE visible
20 Jan ? 04:56:30 12° SSE 04:56:30 12° SSE 04:56:52 10° SSE visible
